VE7EOZ-10 Weather Reports


time (UTC)temp
C
wind
direction
speed
KPH
gust
KPH
rain 1hr
cm
rain 24hr
cm
rain mn
cm
humidity
%
barometer
mb
20260503181600 16 267 3.2 9.7 0.00 0.00 0.00 49 1019.9
20260503181058 16 280 3.2 9.7 0.00 0.00 0.00 49 1019.9
20260503180558 16 332 0.0 9.7 0.00 0.00 0.00 50 1019.9
20260503180056 16 258 4.8 9.7 0.00 0.00 0.00 51 1019.9
20260503175554 16 338 1.6 6.4 0.00 0.00 0.00 50 1019.9
20260503175054 15 298 0.0 6.4 0.00 0.00 0.00 53 1019.8
20260503174609 15 225 0.0 6.4 0.00 0.00 0.00 53 1019.9
20260503174052 15 302 1.6 11.3 0.00 0.00 0.00 53 1020.0
20260503173551 15 279 3.2 11.3 0.00 0.00 0.00 53 1020.0
20260503173109 15 204 0.0 4.8 0.00 0.00 0.00 55 1020.0
20260503172549 15 52 0.0 9.7 0.00 0.00 0.00 55 1020.2
20260503172050 14 323 0.0 9.7 0.00 0.00 0.00 54 1020.3
20260503171548 14 354 0.0 8.0 0.00 0.00 0.00 56 1020.4
20260503171048 14 354 3.2 9.7 0.00 0.00 0.00 57 1020.6
20260503170547 14 343 4.8 9.7 0.00 0.00 0.00 55 1020.7
20260503150530 6 348 0.0 3.2 0.00 0.00 0.00 86 1021.1
20260503131017 3 348 0.0 0.0 0.00 0.00 0.00 85 1020.7
20260503130518 3 348 0.0 0.0 0.00 0.00 0.00 85 1020.6
20260503110558 5 348 0.0 0.0 0.00 0.00 0.00 80 1019.9
20260503081539 8 348 0.0 0.0 0.00 0.00 0.00 70 1019.3
20260503081025 8 348 0.0 0.0 0.00 0.00 0.00 70 1019.3
20260503072516 9 348 0.0 0.0 0.00 0.00 0.00 67 1019.1
20260503072017 9 348 0.0 0.0 0.00 0.00 0.00 68 1019.1
20260503071513 9 348 0.0 0.0 0.00 0.00 0.00 68 1019.1
20260503071011 10 348 0.0 0.0 0.00 0.00 0.00 66 1019.0
20260503070511 10 348 0.0 0.0 0.00 0.00 0.00 66 1018.9
20260503055007 11 348 0.0 0.0 0.00 0.00 0.00 60 1018.7
20260503054514 11 348 0.0 0.0 0.00 0.00 0.00 58 1018.7
20260503054006 11 348 0.0 0.0 0.00 0.00 0.00 58 1018.7
20260503053506 12 348 0.0 0.0 0.00 0.00 0.00 58 1018.7
20260503053006 12 348 0.0 0.0 0.00 0.00 0.00 58 1018.7
20260503052507 12 348 0.0 0.0 0.00 0.00 0.00 57 1018.7
20260503052007 12 348 0.0 0.0 0.00 0.00 0.00 56 1018.7
20260503051506 12 348 0.0 0.0 0.00 0.00 0.00 56 1018.7
20260503051006 12 348 0.0 1.6 0.00 0.00 0.00 56 1018.6
20260503050507 12 348 0.0 0.0 0.00 0.00 0.00 55 1018.5
20260503050005 13 348 0.0 0.0 0.00 0.00 0.00 55 1018.6
20260503045506 13 348 0.0 0.0 0.00 0.00 0.00 55 1018.6
20260503045006 13 348 0.0 0.0 0.00 0.00 0.00 54 1018.5
20260503044505 13 348 0.0 0.0 0.00 0.00 0.00 53 1018.4
20260503044005 13 348 0.0 0.0 0.00 0.00 0.00 52 1018.4
20260503043508 13 348 0.0 0.0 0.00 0.00 0.00 52 1018.5
20260503043004 13 348 0.0 1.6 0.00 0.00 0.00 50 1018.4
20260503042504 14 348 0.0 1.6 0.00 0.00 0.00 50 1018.4
20260503042004 14 348 0.0 1.6 0.00 0.00 0.00 50 1018.3
20260503041505 14 348 0.0 1.6 0.00 0.00 0.00 49 1018.3
20260503041005 15 348 0.0 0.0 0.00 0.00 0.00 49 1018.3
20260503040504 15 348 0.0 0.0 0.00 0.00 0.00 48 1018.3
20260503040005 15 348 0.0 1.6 0.00 0.00 0.00 46 1018.3
20260503035503 15 348 0.0 1.6 0.00 0.00 0.00 46 1018.3
20260503035003 15 348 0.0 0.0 0.00 0.00 0.00 45 1018.3
20260503034504 16 348 0.0 0.0 0.00 0.00 0.00 43 1018.2
20260503034002 16 348 0.0 0.0 0.00 0.00 0.00 44 1018.2
20260503033503 16 348 0.0 0.0 0.00 0.00 0.00 43 1018.1
20260503033003 16 348 0.0 0.0 0.00 0.00 0.00 41 1018.0
20260503032503 17 348 0.0 0.0 0.00 0.00 0.00 43 1018.1
20260503032003 17 348 0.0 0.0 0.00 0.00 0.00 41 1018.1
20260503031503 17 348 0.0 0.0 0.00 0.00 0.00 38 1018.1
20260503031003 17 348 0.0 0.0 0.00 0.00 0.00 38 1018.0
20260503030502 18 348 0.0 0.0 0.00 0.00 0.00 39 1017.9
20260503030005 18 348 0.0 0.0 0.00 0.00 0.00 37 1018.0
20260503025501 18 348 0.0 0.0 0.00 0.00 0.00 37 1018.0
20260503025002 18 348 0.0 0.0 0.00 0.00 0.00 34 1017.9
20260503024501 19 348 0.0 3.2 0.00 0.00 0.00 33 1018.0
20260503024001 19 348 0.0 3.2 0.00 0.00 0.00 31 1017.9
20260503023500 20 348 0.0 0.0 0.00 0.00 0.00 31 1017.9
20260503023001 20 348 0.0 0.0 0.00 0.00 0.00 31 1018.0
20260503022500 20 348 0.0 0.0 0.00 0.00 0.00 30 1017.9
20260503022100 20 348 0.0 1.6 0.00 0.00 0.00 30 1018.0
20260503021602 20 348 0.0 3.2 0.00 0.00 0.00 28 1018.0
20260503021100 20 348 0.0 4.8 0.00 0.00 0.00 27 1018.1
20260503020600 20 348 0.0 4.8 0.00 0.00 0.00 25 1018.1
20260503015557 21 348 3.2 8.0 0.00 0.00 0.00 25 1018.1
20260503015100 20 333 1.6 6.4 0.00 0.00 0.00 25 1018.3
20260503014625 21 333 0.0 4.8 0.00 0.00 0.00 24 1018.2
20260503014057 21 333 0.0 6.4 0.00 0.00 0.00 24 1018.3
20260503013556 21 356 1.6 6.4 0.00 0.00 0.00 23 1018.3
20260503013056 21 347 0.0 6.4 0.00 0.00 0.00 24 1018.4
20260503012556 21 276 1.6 8.0 0.00 0.00 0.00 23 1018.4
20260503012055 21 276 0.0 9.7 0.00 0.00 0.00 23 1018.4
20260503011622 21 255 1.6 8.0 0.00 0.00 0.00 23 1018.3
20260503011058 21 325 3.2 8.0 0.00 0.00 0.00 23 1018.4
20260503010555 21 348 1.6 8.0 0.00 0.00 0.00 23 1018.3
20260503010055 21 340 1.6 8.0 0.00 0.00 0.00 23 1018.3
20260503005557 21 11 1.6 8.0 0.00 0.00 0.00 24 1018.4
20260503005054 21 320 0.0 6.4 0.00 0.00 0.00 24 1018.5
20260503004553 21 319 1.6 6.4 0.00 0.00 0.00 23 1018.4
20260503004052 21 242 0.0 6.4 0.00 0.00 0.00 23 1018.5
20260503003552 22 234 0.0 16.1 0.00 0.00 0.00 23 1018.6
20260503003053 22 333 6.4 16.1 0.00 0.00 0.00 22 1018.7
20260503002550 22 37 3.2 14.5 0.00 0.00 0.00 23 1018.6
20260503002049 22 343 0.0 4.8 0.00 0.00 0.00 23 1018.8
20260503001548 21 343 0.0 8.0 0.00 0.00 0.00 24 1018.9
20260503001048 22 343 3.2 11.3 0.00 0.00 0.00 24 1018.9
20260503000546 22 294 3.2 11.3 0.00 0.00 0.00 23 1019.0
20260503000046 22 347 1.6 9.7 0.00 0.00 0.00 23 1019.0
20260502235545 22 75 1.6 8.0 0.00 0.00 0.00 23 1019.1
20260502235045 22 284 1.6 9.7 0.00 0.00 0.00 26 1019.1
20260502234606 21 322 6.4 9.7 0.00 0.00 0.00 25 1019.1
20260502234044 21 265 0.0 9.7 0.00 0.00 0.00 25 1019.1
20260502233545 21 265 1.6 9.7 0.00 0.00 0.00 24 1019.1
20260502233044 21 5 0.0 19.3 0.00 0.00 0.00 24 1019.1
20260502232543 22 328 4.8 19.3 0.00 0.00 0.00 25 1019.3
20260502232044 22 317 1.6 9.7 0.00 0.00 0.00 24 1019.2
20260502231542 21 342 3.2 11.3 0.00 0.00 0.00 24 1019.3
20260502231042 21 294 3.2 8.0 0.00 0.00 0.00 25 1019.3
20260502230542 21 284 3.2 11.3 0.00 0.00 0.00 24 1019.3
20260502230041 21 339 4.8 16.1 0.00 0.00 0.00 24 1019.4
20260502225539 21 321 1.6 11.3 0.00 0.00 0.00 24 1019.4
20260502225043 22 227 3.2 14.5 0.00 0.00 0.00 24 1019.6
20260502224538 22 256 6.4 14.5 0.00 0.00 0.00 24 1019.7
20260502224037 22 239 4.8 9.7 0.00 0.00 0.00 26 1019.7
20260502223539 22 317 0.0 8.0 0.00 0.00 0.00 28 1019.8
20260502223036 22 321 1.6 8.0 0.00 0.00 0.00 27 1019.8
20260502222535 22 262 0.0 11.3 0.00 0.00 0.00 27 1019.9
20260502222034 22 284 4.8 11.3 0.00 0.00 0.00 28 1019.9
20260502221533 22 277 3.2 11.3 0.00 0.00 0.00 29 1019.9
20260502221032 22 108 1.6 6.4 0.00 0.00 0.00 30 1020.0
20260502220531 21 20 0.0 1.6 0.00 0.00 0.00 31 1020.1
20260502220031 21 20 0.0 3.2 0.00 0.00 0.00 30 1020.1
20260502215529 21 20 0.0 4.8 0.00 0.00 0.00 30 1020.1
20260502215027 21 338 1.6 8.0 0.00 0.00 0.00 30 1020.3
20260502214527 21 324 3.2 8.0 0.00 0.00 0.00 29 1020.5
20260502214028 21 273 0.0 4.8 0.00 0.00 0.00 32 1020.6
20260502213525 21 315 0.0 8.0 0.00 0.00 0.00 31 1020.6
20260502213035 21 315 3.2 8.0 0.00 0.00 0.00 30 1020.8
20260502212523 21 259 0.0 8.0 0.00 0.00 0.00 30 1020.8
20260502212022 21 247 1.6 8.0 0.00 0.00 0.00 32 1020.9
20260502211523 20 239 1.6 11.3 0.00 0.00 0.00 33 1020.8
20260502211021 20 306 1.6 12.9 0.00 0.00 0.00 33 1021.0
20260502210523 20 266 3.2 12.9 0.00 0.00 0.00 33 1021.0
20260502210019 20 263 3.2 12.9 0.00 0.00 0.00 33 1021.1
20260502205519 20 348 3.2 11.3 0.00 0.00 0.00 33 1021.1
20260502205019 20 317 3.2 8.0 0.00 0.00 0.00 33 1021.1
20260502204518 20 332 0.0 6.4 0.00 0.00 0.00 34 1021.2
20260502204019 20 331 1.6 8.0 0.00 0.00 0.00 31 1021.3
20260502203515 21 294 3.2 8.0 0.00 0.00 0.00 32 1021.3
20260502203015 21 335 0.0 4.8 0.00 0.00 0.00 32 1021.5
20260502202514 21 289 1.6 8.0 0.00 0.00 0.00 34 1021.6
20260502202014 21 305 1.6 8.0 0.00 0.00 0.00 33 1021.6
20260502201524 20 202 0.0 9.7 0.00 0.00 0.00 34 1021.6
20260502201011 20 269 1.6 9.7 0.00 0.00 0.00 37 1021.6
20260502200512 20 340 1.6 8.0 0.00 0.00 0.00 35 1021.7
20260502200009 20 338 1.6 8.0 0.00 0.00 0.00 35 1021.8
20260502195508 19 225 1.6 8.0 0.00 0.00 0.00 37 1022.0
20260502195006 19 72 0.0 6.4 0.00 0.00 0.00 35 1022.0
20260502194505 19 273 0.0 11.3 0.00 0.00 0.00 37 1022.2
20260502194005 19 273 1.6 11.3 0.00 0.00 0.00 36 1022.2
20260502193505 20 161 0.0 3.2 0.00 0.00 0.00 37 1022.2
20260502193005 19 161 0.0 8.0 0.00 0.00 0.00 38 1022.2
20260502192503 19 161 1.6 8.0 0.00 0.00 0.00 38 1022.4
20260502192002 18 161 1.6 6.4 0.00 0.00 0.00 39 1022.4
20260502191501 18 161 0.0 3.2 0.00 0.00 0.00 39 1022.4
20260502191100 18 161 0.0 6.4 0.00 0.00 0.00 40 1022.5
20260502190559 18 161 0.0 6.4 0.00 0.00 0.00 43 1022.6
20260502190058 17 161 0.0 4.8 0.00 0.00 0.00 42 1022.7
20260502185556 17 161 0.0 4.8 0.00 0.00 0.00 42 1022.7
20260502185054 17 161 0.0 3.2 0.00 0.00 0.00 43 1022.9
20260502184602 16 161 1.6 3.2 0.00 0.00 0.00 44 1022.9
20260502184052 16 161 0.0 6.4 0.00 0.00 0.00 47 1023.1
20260502183550 15 161 0.0 4.8 0.00 0.00 0.00 45 1023.1
20260502183050 15 161 1.6 4.8 0.00 0.00 0.00 45 1023.3
20260502182548 15 161 0.0 4.8 0.00 0.00 0.00 47 1023.3
20260502182045 14 161 0.0 6.4 0.00 0.00 0.00 48 1023.3